{"data":{"norad_id":55494,"intl_designator":"2023-015AX","name":"STARLINK-5344","alt_names":[],"object_type":"PAYLOAD","status":"ACTIVE","operator":null,"country":"US","launch_date":"2023-02-02","launch_site_code":"AFETR","launch_vehicle":null,"mission":null,"orbit_class":"UNKNOWN","rcs_meters":null,"size_class":null,"mass_kg":null,"dimensions":null,"purposes":["comms"],"wikipedia_slug":null,"has_3d_model":false,"image_url":null,"decayed_at":null,"tle_current":{"epoch":"2026-05-25T01:23:16.730592Z","epoch_age_seconds":80429,"freshness":"FRESH","line1":"1 55494U 23015AX  26145.05783253  .00001219  00000+0  53793-4 0  9992","line2":"2 55494  43.0050 268.5403 0001535 289.7310  70.3376 15.27591547182275","mean_motion":15.27591547,"eccentricity":0.0001535,"inclination_deg":43.005,"raan_deg":268.5403,"arg_perigee_deg":289.731,"mean_anomaly_deg":70.3376,"bstar":5.3793e-5,"rev_number":18227,"period_min":94.266036155279,"perigee_km":481.96133362706,"apogee_km":484.06770714382,"semimajor_km":6861.1515203854,"source":"CELESTRAK","updated_at":"2026-05-25T13:38:17.831070Z"}}}